Location: Audinghen
(50.8518°N, 1.6129°E)
Time: 05:38:34
(UTC+00:00)

FALCON 9 DEB - Pass Details

Date: 07 August 2020
Orbit: 428 x 441 km, 53.0° (Epoch: 19 September)

Event Time Altitude Azimuth Distance (km) Brightness Sun altitude
Exits shadow 01:49:27 10° 288° (WNW) 1,559 5.8 -18.6°
Maximum altitude 01:52:57 74° 13° (NNE) 463 3.3 -18.4°
Drops below altitude 10° 01:56:26 10° 100° (E) 1,551 6.2 -18.1°
Sets 01:58:33 0° 102° (ESE) 2,416 7.1 -17.9°
